カタログに戻る

HULIANWANG DIGUI-135

運用中通信LEO
NORAD 67243·PAYLOAD·🇨🇳 China

打ち上げ Dec 25, 2025 から Wenchang Space Launch Site

Loading…

次のパス (今後24時間)

TLE

最新Source: Space-Track

元期: Sep 14, 2026, 09:35 UTC

1 67243U 25311H   26257.39986473 -.00000075  00000-0  10468-3 0  9990
2 67243  50.0012 155.9179 0000258 304.2702  55.8146 13.29326710 35205

AllMySatでHULIANWANG DIGUI-135をリアルタイム追跡

Download on the App Store